[[{"header":{"parameterUnit":"m.s-1","parameterCategory":1,"la1":30.2991,"la2":30.254,"lo1":-89.0895,"lo2":-89.0444,"dy":0.0017,"dx":0.0017,"nx":28,"ny":28,"refTime":"2023-09-29T21:00:00:Z","depth":0,"parameterNumber":2,"parameterNumberName":"U-component_of_WINDS"},"data":[0,0,0,0,0,0,0,0,0,0,0,0,0,0,0,0,0,0,0,0,0,0,0,0,0,0,0,0,0,0,0,0,0,0,0,0,0,0,0,0,0,0,0,0,0,0,0,0,0,0,0,0,0,0,0,0,0,0,-2.3447,-2.3447,0,-2.3463,-2.3463,-2.3463,-2.3375,-2.3372,-2.337,-2.3367,-2.3384,-2.3386,-2.3389,0,0,0,0,0,0,0,0,0,0,0,0,0,-2.334,-2.3343,-2.3447,-2.3447,-2.3447,-2.3463,-2.3463,-2.3463,-2.3375,-2.3372,-2.3369,-2.3366,-2.3383,-2.3386,-2.3389,0,0,0,0,0,0,0,0,0,0,0,0,0,-2.3375,-2.3344,-2.3447,-2.3405,-2.3402,-2.3463,-2.3463,-2.3463,-2.3376,-2.3372,-2.3368,-2.3365,-2.3382,-2.3386,-2.339,-2.3491,0,0,-2.3403,-2.3404,0,0,0,0,0,0,0,0,-2.3373,-2.3379,-2.3411,-2.3408,-2.3404,-2.3413,-2.3431,-2.3473,-2.3377,-2.3386,-2.3367,-2.3363,-2.3397,-2.3399,-2.341,-2.3492,-2.3493,-2.3403,-2.3406,-2.3407,-2.3409,0,0,0,0,0,0,0,-2.337,-2.3377,-2.3453,-2.3412,-2.3408,-2.3386,-2.3387,-2.3439,-2.3412,-2.3385,-2.3378,-2.3381,-2.3394,-2.3407,-2.341,-2.3493,-2.3403,-2.3407,-2.3409,-2.3411,-2.3659,-2.3663,0,0,0,0,0,0,-2.3374,-2.3376,-2.3452,-2.3453,-2.3379,-2.3391,-2.3392,-2.3414,-2.3411,-2.3407,-2.3385,-2.3377,-2.3401,-2.3405,-2.341,-2.3529,-2.3407,-2.3411,-2.3414,-2.3655,-2.366,-2.3664,0,0,0,0,0,0,-2.3372,-2.3381,-2.3452,-2.3413,-2.342,-2.3397,-2.3423,-2.3416,-2.3429,-2.3411,-2.3406,-2.3403,-2.3399,-2.3405,-2.3472,-2.3528,-2.3413,-2.3417,-2.365,-2.3657,-2.3662,-2.3768,0,0,0,0,0,0,-2.3369,-2.3381,-2.3419,-2.3415,-2.3423,-2.3513,-2.3426,-2.3419,-2.3436,-2.3427,-2.3427,-2.3423,-2.3396,-2.3466,-2.3476,-2.3532,-2.342,-2.3645,-2.3653,-2.366,-2.3759,-2.3776,-2.3792,0,0,0,0,0,-2.3366,-2.3448,-2.3422,-2.3432,-2.347,-2.3517,-2.3521,-2.3489,-2.3441,-2.348,-2.3468,-2.3423,-2.3521,-2.3474,-2.3484,-2.3542,-2.3641,-2.3651,-2.366,-2.3752,-2.3773,-2.3791,0,0,0,0,0,0,-2.346,-2.3447,-2.3417,-2.3501,-2.3511,-2.3502,-2.3549,-2.3513,-2.3536,-2.3526,-2.3484,-2.3485,-2.356,-2.3558,-2.3506,-2.3641,-2.3573,-2.3585,-2.3639,-2.3659,-2.3675,-2.3674,-2.3424,0,0,0,0,0,-2.3491,-2.353,-2.3516,-2.3591,-2.3598,-2.3573,-2.3592,-2.3566,-2.3574,-2.3578,-2.3572,-2.3581,-2.3614,-2.3637,-2.3666,-2.3758,-2.3757,-2.3804,-2.382,-2.3833,-2.3844,-2.3893,-2.3913,-2.3695,-2.3695,-2.3694,0,0,-2.3555,-2.3552,-2.3579,-2.361,-2.3615,-2.3656,-2.3577,-2.3624,-2.3654,-2.3585,-2.3648,-2.3644,-2.3652,-2.3733,-2.3768,-2.3734,-2.3904,-2.3845,-2.3856,-2.3859,-2.3904,-2.3925,-2.3944,-2.3701,-2.37,-2.3699,0,0,-2.3692,-2.3694,-2.3757,-2.3763,-2.3771,-2.3754,-2.3769,-2.3766,-2.3761,-2.3824,-2.3773,-2.3808,-2.3866,-2.3874,-2.3885,-2.4026,-2.3986,-2.4037,-2.4122,-2.4171,-2.4188,-2.4203,-2.4253,-2.4272,-2.4048,-2.4048,-2.4048,0,-2.377,-2.383,-2.3794,-2.3845,-2.386,-2.3799,-2.3863,-2.3871,-2.3888,-2.39,-2.3861,-2.3932,-2.3933,-2.4015,-2.405,-2.4061,-2.4077,-2.4037,-2.4188,-2.4203,-2.4217,-2.4264,-2.4283,-2.4054,-2.4054,-2.4053,-2.4052,0,-2.3926,-2.3968,-2.4018,-2.4037,-2.4057,-2.4115,-2.4087,-2.4113,-2.4085,-2.4072,-2.4137,-2.4137,-2.4165,-2.4183,-2.4156,-2.4261,-2.4239,-2.4195,-2.4126,-2.4244,-2.4288,-2.4306,-2.4063,-2.4061,-2.4059,-2.4058,0,0,-2.4122,-2.412,-2.4139,-2.4147,-2.4151,-2.4184,-2.4238,-2.4266,-2.4289,-2.4303,-2.4347,-2.4398,-2.4357,-2.4371,-2.4344,-2.4387,-2.4499,-2.4337,-2.4337,-2.4367,-2.4614,-2.4648,-2.4669,-2.4472,-2.4476,-2.4478,-2.4614,0,-2.4256,-2.4349,-2.4318,-2.4412,-2.4451,-2.4395,-2.4442,-2.445,-2.444,-2.4472,-2.446,-2.4497,-2.444,-2.4448,-2.4488,-2.4477,-2.4548,-2.4467,-2.4513,-2.4515,-2.4513,-2.4692,-2.4727,-2.4855,-2.4631,-2.4634,-2.4636,0,-2.4425,-2.4446,-2.4544,-2.4542,-2.4557,-2.4601,-2.4624,-2.4655,-2.4663,-2.4652,-2.4668,-2.4633,-2.4687,-2.4618,-2.4691,-2.4637,-2.4654,-2.4652,-2.4656,-2.4659,-2.4583,-2.47,-2.4895,-2.4914,-2.4662,-2.466,-2.4658,0,-2.4559,-2.4611,-2.4677,-2.4685,-2.4685,-2.4716,-2.4718,-2.4722,-2.4741,-2.4761,-2.4773,-2.48,-2.4814,-2.4836,-2.4809,-2.4761,-2.4886,-2.4815,-2.4879,-2.488,-2.4908,-2.4906,-2.5108,-2.4919,-2.4919,-2.4919,-2.4918,0,-2.4711,-2.4774,-2.4737,-2.4777,-2.4845,-2.481,-2.4878,-2.4873,-2.4878,-2.4916,-2.4869,-2.4906,-2.4869,-2.4903,-2.4882,-2.4946,-2.4953,-2.4946,-2.494,-2.495,-2.4951,-2.4961,-2.4951,-2.4924,-2.4923,-2.4922,-2.4921,0,-2.4872,-2.485,-2.4918,-2.4912,-2.4912,-2.4962,-2.4957,-2.4995,-2.4981,-2.503,-2.504,-2.5019,-2.5057,-2.5032,-2.507,-2.5056,-2.514,-2.5121,-2.5137,-2.5132,-2.5197,-2.5192,-2.5413,-2.544,-2.5234,-2.5236,-2.5237,0,-2.4971,-2.5017,-2.5017,-2.5039,-2.5044,-2.508,-2.5099,-2.5066,-2.5088,-2.5101,-2.5137,-2.517,-2.5195,-2.5258,-2.5246,-2.5275,-2.5256,-2.5332,-2.526,-2.527,-2.5258,-2.5255,-2.526,-2.5346,-2.5349,-2.5351,-2.5352,0,-2.5149,-2.5136,-2.5165,-2.5191,-2.5215,-2.5233,-2.5248,-2.5269,-2.5236,-2.5263,-2.5301,-2.532,-2.5359,-2.5393,-2.5417,-2.5418,-2.538,-2.5375,-2.5391,-2.5402,-2.541,-2.5407,-2.5176,-2.537,-2.5368,-2.5367,-2.5366,-2.5365,-2.5281,-2.532,-2.5326,-2.536,-2.5368,-2.5383,-2.5418,-2.5409,-2.544,-2.5468,-2.5447,-2.5492,-2.5499,-2.5528,-2.5534,-2.5569,-2.5538,-2.5562,-2.5568,-2.5574,-2.5583,-2.5404,-2.5573,-2.5573,-2.5572,-2.5572,-2.5571,0,-2.5457,-2.5458,-2.549,-2.5512,-2.5539,-2.5501,-2.5516,-2.5541,-2.5581,-2.5591,-2.5617,-2.566,-2.5693,-2.5684,-2.5714,-2.5743,-2.5727,-2.5752,-2.575,-2.5751,-2.5609,-2.5592,-2.5765,-2.5765,-2.5765,-2.5765,-2.5765,-2.5765,-2.5551,-2.5615,-2.5603,-2.567,-2.567,-2.5714,-2.5726,-2.574,-2.5747,-2.5798,-2.5825,-2.5819,-2.5822,-2.5851,-2.588,-2.5876,-2.589,-2.5922,-2.5912,-2.578,-2.5761,-2.5742,-2.5726,-2.5925,-2.5925,-2.6051,-2.6052,-2.6053]},{"header":{"parameterUnit":"m.s-1","parameterCategory":1,"la1":30.2991,"la2":30.254,"lo1":-89.0895,"lo2":-89.0444,"dy":0.0017,"dx":0.0017,"nx":28,"ny":28,"refTime":"2023-09-29T21:00:00:Z","depth":0,"parameterNumber":3,"parameterNumberName":"V-component_of_WINDS"},"data":[0,0,0,0,0,0,0,0,0,0,0,0,0,0,0,0,0,0,0,0,0,0,0,0,0,0,0,0,0,0,0,0,0,0,0,0,0,0,0,0,0,0,0,0,0,0,0,0,0,0,0,0,0,0,0,0,0,0,0.0755,0.0755,0,0.0734,0.0734,0.0734,0.072,0.072,0.072,0.072,0.0696,0.0696,0.0695,0,0,0,0,0,0,0,0,0,0,0,0,0,0.0783,0.0782,0.0755,0.0755,0.0755,0.0734,0.0734,0.0733,0.072,0.072,0.072,0.072,0.0696,0.0696,0.0695,0,0,0,0,0,0,0,0,0,0,0,0,0,0.0767,0.0782,0.0755,0.0746,0.0745,0.0734,0.0734,0.0733,0.072,0.072,0.072,0.072,0.0697,0.0696,0.0695,0.0692,0,0,0.0692,0.0692,0,0,0,0,0,0,0,0,0.0768,0.0766,0.0747,0.0746,0.0745,0.073,0.0735,0.0719,0.072,0.0729,0.072,0.072,0.0707,0.0705,0.0702,0.0691,0.069,0.0692,0.0692,0.0691,0.0691,0,0,0,0,0,0,0,0.0769,0.0767,0.0747,0.0747,0.0746,0.0742,0.074,0.0732,0.0719,0.0729,0.0728,0.0725,0.0707,0.0703,0.0701,0.0689,0.0692,0.0691,0.0691,0.0691,0.0675,0.0675,0,0,0,0,0,0,0.0772,0.0768,0.0747,0.0746,0.0757,0.0742,0.0739,0.0735,0.0719,0.0717,0.0725,0.0725,0.0704,0.0702,0.07,0.0696,0.0691,0.069,0.069,0.0675,0.0675,0.0675,0,0,0,0,0,0,0.0773,0.077,0.0748,0.0757,0.0754,0.0741,0.0737,0.0734,0.073,0.0717,0.0714,0.0724,0.0704,0.0701,0.0694,0.0695,0.069,0.0689,0.0675,0.0675,0.0675,0.0687,0,0,0,0,0,0,0.0773,0.0771,0.0769,0.0757,0.0753,0.0743,0.0737,0.0734,0.0729,0.0728,0.0715,0.0712,0.0704,0.0696,0.0693,0.0694,0.0689,0.0675,0.0675,0.0675,0.0686,0.0687,0.0688,0,0,0,0,0,0.0774,0.0773,0.0769,0.0767,0.0752,0.0743,0.0741,0.0732,0.0729,0.0728,0.0719,0.0713,0.0695,0.0695,0.0692,0.0692,0.0675,0.0675,0.0675,0.0686,0.0687,0.0688,0,0,0,0,0,0,0.0785,0.0771,0.0767,0.0761,0.0754,0.0741,0.0739,0.0733,0.0726,0.0725,0.0713,0.071,0.0704,0.0697,0.0697,0.0689,0.0684,0.0684,0.0693,0.0694,0.0695,0.0697,0.0688,0,0,0,0,0,0.0787,0.0781,0.0769,0.0766,0.0762,0.0751,0.0747,0.0741,0.0732,0.0729,0.0719,0.0711,0.0703,0.0698,0.0691,0.0686,0.0683,0.0684,0.0685,0.0686,0.0686,0.0683,0.0684,0.0676,0.0676,0.0676,0,0,0.079,0.0782,0.0779,0.0768,0.0761,0.0755,0.0749,0.0743,0.0739,0.0727,0.072,0.0714,0.0703,0.0697,0.0694,0.0691,0.0688,0.0686,0.0687,0.0686,0.0683,0.0684,0.0685,0.0676,0.0676,0.0676,0,0,0.0793,0.0787,0.0783,0.0777,0.0767,0.076,0.076,0.0748,0.0743,0.0736,0.0728,0.0723,0.071,0.0703,0.0698,0.07,0.0693,0.0698,0.0702,0.07,0.07,0.0701,0.0702,0.0702,0.0697,0.0698,0.0698,0,0.0798,0.079,0.0782,0.0777,0.0772,0.0763,0.0759,0.0753,0.0741,0.0738,0.0736,0.072,0.0713,0.0705,0.0706,0.0702,0.07,0.0699,0.0701,0.0702,0.0702,0.0703,0.0703,0.0698,0.0698,0.0698,0.0698,0,0.0797,0.0792,0.079,0.078,0.0775,0.0771,0.0761,0.0757,0.0752,0.0745,0.0738,0.0729,0.072,0.0717,0.0711,0.0709,0.0708,0.0704,0.0699,0.0703,0.0704,0.0704,0.0699,0.0699,0.0699,0.0698,0,0,0.0806,0.0792,0.0791,0.0787,0.0776,0.0771,0.0767,0.0759,0.0756,0.0748,0.0744,0.0734,0.073,0.0724,0.0718,0.0715,0.0718,0.0711,0.0711,0.0713,0.0715,0.0719,0.0719,0.0714,0.0714,0.0714,0.0716,0,0.0807,0.0799,0.0792,0.0786,0.0782,0.0773,0.0769,0.0762,0.0756,0.0751,0.0743,0.0737,0.0732,0.0729,0.0726,0.0718,0.0718,0.0718,0.071,0.0709,0.0712,0.0719,0.0723,0.0725,0.0716,0.0716,0.0716,0,0.0808,0.0802,0.0796,0.0787,0.0784,0.0781,0.0773,0.0768,0.076,0.0756,0.075,0.0743,0.0738,0.0734,0.0727,0.0727,0.0723,0.0719,0.0718,0.0717,0.0713,0.0718,0.0726,0.0726,0.0717,0.0717,0.0717,0,0.0815,0.0805,0.0801,0.0797,0.0786,0.0784,0.0779,0.0771,0.0766,0.076,0.0757,0.0749,0.0745,0.0739,0.073,0.0728,0.0724,0.0719,0.072,0.072,0.0719,0.0719,0.0726,0.0717,0.0717,0.0717,0.0717,0,0.0817,0.0814,0.0804,0.0801,0.0797,0.0789,0.0785,0.0779,0.0773,0.0768,0.0761,0.0757,0.0746,0.074,0.0734,0.0729,0.0727,0.0723,0.0721,0.0723,0.0724,0.072,0.072,0.0717,0.0717,0.0717,0.0717,0,0.0824,0.0817,0.0811,0.0802,0.0799,0.0797,0.0789,0.0785,0.0779,0.0774,0.0772,0.0763,0.0756,0.0747,0.0738,0.0733,0.0729,0.0726,0.0732,0.0731,0.0732,0.0732,0.0737,0.0737,0.0728,0.0728,0.0728,0,0.0826,0.0824,0.0814,0.0811,0.0807,0.0802,0.0798,0.079,0.0786,0.0777,0.0775,0.0768,0.0762,0.0752,0.0744,0.0737,0.0734,0.0736,0.0733,0.0735,0.0734,0.0734,0.0734,0.0737,0.0737,0.0737,0.0737,0,0.083,0.0827,0.0822,0.0816,0.0812,0.0807,0.0801,0.0799,0.0789,0.0785,0.0779,0.0775,0.0766,0.0759,0.0751,0.0745,0.074,0.0738,0.0738,0.074,0.0744,0.0742,0.0734,0.0738,0.0738,0.0738,0.0738,0.0738,0.0834,0.0832,0.0826,0.082,0.0816,0.0811,0.0807,0.0802,0.0797,0.0789,0.0785,0.0779,0.0771,0.076,0.0755,0.075,0.0747,0.0747,0.0747,0.0747,0.0748,0.0745,0.0748,0.0748,0.0748,0.0748,0.0748,0,0.0838,0.0834,0.0829,0.0822,0.0818,0.0814,0.0808,0.0805,0.08,0.0794,0.0789,0.0782,0.0776,0.0767,0.076,0.0758,0.0755,0.0756,0.0756,0.0755,0.075,0.0751,0.0759,0.0759,0.0759,0.0759,0.0759,0.0759,0.084,0.0836,0.0832,0.0826,0.0821,0.0816,0.0813,0.0809,0.0804,0.0797,0.0792,0.0787,0.078,0.0773,0.0767,0.0764,0.0762,0.0764,0.0761,0.0756,0.0755,0.0755,0.0755,0.0764,0.0764,0.0766,0.0767,0.0767]}]]